Regional Weather Roundup
Issued by NWS

Home | Current Version | Previous Version | Text Only | Print | Product List | Glossary Off
Versions: 1 2 3 4 5 6 7 8 9 10 11 12 13 14 15 16 17 18 19 20 21 22 23 24 25 26 27 28 29 30 31 32 33 34 35 36 37 38 39 40 41 42 43 44 45 46 47 48 49 50

771
ASUS43 KBIS 271210
RWRND

NORTH DAKOTA REGIONAL WEATHER ROUNDUP
NATIONAL WEATHER SERVICE BISMARCK ND
700 AM CDT TUE SEP 27 2016

NOTE: "FAIR" INDICATES FEW OR NO CLOUDS BELOW 12,000 FEET WITH NO
SIGNIFICANT WEATHER AND/OR OBSTRUCTIONS TO VISIBILITY.


NDZ001>003-009>011-017-271300-
NORTHWEST NORTH DAKOTA

CITY           SKY/WX    TMP DP  RH WIND       PRES   REMARKS
WILLISTON      CLOUDY    37  35  92 CALM      30.01F
6HR MIN TEMP:  37; 6HR MAX TEMP:  46;

MINOT          CLEAR     42  35  76 SW6       30.01S
MINOT AFB      CLEAR     37  34  88 NW6       30.00S
$$

NDZ018>021-031>035-040>046-271300-
SOUTHWEST NORTH DAKOTA

CITY           SKY/WX    TMP DP  RH WIND       PRES   REMARKS
BISMARCK       CLEAR     40  36  86 W5        30.03S
6HR MIN TEMP:  36; 6HR MAX TEMP:  46;

DICKINSON      CLEAR     40  37  89 W5        30.01F
GARRISON         N/A     37  35  92 NW6       30.02R
6HR MIN TEMP:  35; 6HR MAX TEMP:  44;

HETTINGER ARPT CLEAR     40  37  89 NW5       30.05F
$$

NDZ004>008-012>016-024-026-027-054-271300-
NORTHEAST NORTH DAKOTA

CITY           SKY/WX    TMP DP  RH WIND       PRES   REMARKS
GRAND FORKS    CLEAR     42  37  82 W8        29.91R
GRND FRKS AFB  CLEAR     43  37  81 NW8       29.92R
DEVILS LAKE    CLEAR     37  35  92 NW6       29.97S
$$

NDZ022-023-025-028>030-036>039-047>053-271300-
SOUTHEAST NORTH DAKOTA

CITY           SKY/WX    TMP DP  RH WIND       PRES   REMARKS
FARGO          CLEAR     40  35  83 W10       29.92S
6HR MIN TEMP:  37; 6HR MAX TEMP:  44;

JAMESTOWN      CLEAR     42  37  82 NW5       29.97F
$$





USA.gov is the U.S. government's official web portal to all federal, state and local government web resources and services.